Location: Stockholm
(59.3333°N, 18.0500°E)
Time: 12:02:11
(UTC+02:00)

ATLAS CENTAUR R/B - Pass Details

Date: 21 June 2020
Orbit: 473 x 674 km, 64.7° (Epoch: 25 June)

Event Time Altitude Azimuth Distance (km) Brightness Sun altitude
Rises 00:49:12 0° 301° (WNW) 2,658 5.3 -7.2°
Reaches altitude 10° 00:51:27 10° 304° (NW) 1,738 4.4 -7.2°
Maximum altitude 00:55:17 69° 29° (NNE) 535 1.5 -7.2°
Drops below altitude 10° 00:58:58 10° 113° (ESE) 1,661 3.6 -7.2°
Sets 01:01:04 0° 116° (ESE) 2,527 4.5 -7.2°
